Regional Weather Roundup
Issued by NWS Portland, ME

Home | Current Version | Previous Version | Text Only | Print | Product List | Glossary On
Versions: 1 2 3 4 5 6 7 8 9 10 11 12 13 14 15 16 17 18 19 20 21 22 23 24 25 26 27 28 29 30 31 32 33 34 35 36 37 38 39 40 41 42 43 44 45 46 47 48 49 50
000
ASUS41 KGYX 221010
RWRGYX
WEATHER ROUNDUP FOR MAINE AND NEW HAMPSHIRE
NATIONAL WEATHER SERVICE GRAY ME
500 AM EST SAT NOV 22 2014

MEZ002-005-006-010-012-015-018-020-021-024-026-027-029-221100-
MAINE

CITY           SKY/WX    TMP DP  RH WIND       PRES   REMARKS
PORTLAND       CLEAR     22   8  55 SW3       30.36R
SANFORD        CLEAR     18   7  62 W9        30.35F
BAR HARBOR     CLEAR     18  10  73 CALM      30.31S
WISCASSET      CLEAR     18   9  68 CALM      30.36R
ROCKLAND       CLEAR     19   9  63 W8        30.32S
FRYEBURG       CLEAR     19   7  59 SW6       30.31F
LEWISTONAUBURN CLEAR     18   7  62 S5        30.31S
AUGUSTA        CLEAR     21   7  54 W3        30.30F
WATERVILLE     CLEAR     18   5  57 SW3       30.27S
BANGOR         CLEAR     16   6  65 SW5       30.29S
GREENVILLE       N/A     11   5  77 S3        30.13S
MILLINOCKET    CLEAR     14   7  73 CALM      30.24F
HOULTON        CLEAR     13   4  67 W6        30.17S
PRESQUE ISLE   CLEAR     12   3  67 SW9       30.14S
FRENCHVILLE    CLEAR      7   3  84 W13       30.07S WCI  -9
CARIBOU        CLEAR     10   3  73 SW7       30.13R
$$

NHZ002-005-008-009-011-012-014-221100-
NEW HAMPSHIRE

CITY           SKY/WX    TMP DP  RH WIND       PRES   REMARKS
PORTSMOUTH     CLEAR     21   8  57 SW7       30.37S
ROCHESTER      CLEAR     21   8  57 VRB3      30.35S
NASHUA         CLEAR     21  12  68 CALM      30.40F
MANCHESTER     CLEAR     21  10  62 CALM      30.38S
CONCORD        CLEAR     14   7  73 CALM      30.38S
LACONIA        CLEAR     19   9  63 SW7       30.32S
PLYMOUTH       MOCLDY    14  13  99 CALM      30.34F
BERLIN         FAIR      10   6  84 CALM      30.23F
WHITEFIELD     PTCLDY    14   7  73 CALM      30.26S
JAFFREY        CLEAR     17  10  74 S3        30.34S
LEBANON        CLOUDY    14   9  80 CALM      30.33F
MT WASHINGTON  FOG       -2  -2 100 NW61        N/A  VSB 1/16WCI -36
$$

VTZ005-007-008-221100-
VERMONT

CITY           SKY/WX    TMP DP  RH WIND       PRES   REMARKS
ST JOHNSBURY     N/A     12   9  87 MISG      30.27F
MONTPELIER     PTCLDY    17   9  70 S10       30.29F WCI   5
BURLINGTON     PTCLDY    23  12  62 S13G21    30.29F WCI  11
$$

MAZ007-012-024-CTZ003-RIZ002-NYZ038-NYZ072-221100-
SOUTHERN NEW ENGLAND AND NY

CITY           SKY/WX    TMP DP  RH WIND       PRES   REMARKS
BOSTON         PTCLDY    26  12  55 W10       30.42S WCI  16
WORCESTER      CLEAR     20   9  62 W12       30.35F WCI   8
NANTUCKET      CLEAR     28  15  58 W9        30.44S
PROVIDENCE     CLEAR     21  11  65 SW6       30.44F
HARTFORD       CLEAR     21  11  65 CALM      30.43F
ALBANY         PTCLDY    20  11  68 S6        30.41F
NEW YORK CITY  CLEAR     30  12  47 W5        30.48S
$$

ANZ081-ANZ082-ANZ150-NHZ014-MEZ023>029-221100-
COASTAL MARINE OBSERVATIONS

STATION/POSITION TIME  TEMP    WIND        PRES    WAVE
                       AIR SEA DIR/SP/G            HT/PER
                 (UTC) (F)     (DEG/KT/KT) (MB)    (FT/S)
MOUNT DESERT ROC 1000   28                 1026.0R
MATINICUS ROCK   1000          280/ 17/ 23 1026.4R
PORTLAND WX BUOY 0950   28 50  270/ 17/ 21 1027.9R   2/ 3
WELLS            0900   22 42  260/  1/  4 1027.8F
ISLE OF SHOALS   1000   27     270/ 17/ 20 1028.1R
JEFFREYS LEDGE   0921      51                N/A     4/ 5
CASHES LEDGE BUO 0950   31 50  280/ 14/ 19 1027.4F
$$

.............KEY..............
   WCI - WIND CHILL
   TC  - TEMPERATURE IN CELSIUS
   VSB - VISIBILITY IN MILES
   HX  - HEAT INDEX
   FAIR- INDICATES FEW OR NO CLOUDS BELOW 12,000 FT, WITH NO
         SIGNIFICANT WEATHER AND/OR OBSTRUCTIONS TO VISIBILITY.





USA.gov is the U.S. government's official web portal to all federal, state and local government web resources and services.